Simultaneous Nadir Overpasses (SNOs) Predictions

Prediction of SNOs between LANDSAT-8 and NOAA-19 Satellite Orbit:

Table of predicted SNOs for the next 14.0 days since TLE Epoch: 10/29/2016
Index Date (LANDSAT-8) Time (LANDSAT-8) Lat,Lon (LANDSAT-8) SZA (LANDSAT-8 ) Date (NOAA-19) Time (NOAA-19) Lat,Lon (NOAA-19) SZA (NOAA-19 ) Distance(km) Time Diff (sec)
1 10/29/2016 12:24:39 75.32, 0.21 89.16 10/29/2016 12:23:33 75.30, 0.17 89.13 2.60 66
2 10/29/2016 13:14:08 -75.24, 167.63 90.92 10/29/2016 13:14:27 -75.23, 167.66 90.93 1.54 19
3 10/31/2016 17:58:24 -75.31, 96.76 90.13 10/31/2016 17:57:26 -75.31, 96.69 90.14 1.96 58
4 10/31/2016 18:47:51 75.24, -95.79 89.81 10/31/2016 18:48:31 75.24, -95.85 89.82 1.78 40
5 11/02/2016 23:32:07 75.31,-166.68 90.58 11/02/2016 23:31:29 75.28,-166.65 90.55 3.25 38
6 11/03/2016 00:21:36 -75.23, 0.76 89.50 11/03/2016 00:22:23 -75.23, 0.78 89.49 0.82 47
7 11/05/2016 05:05:52 -75.30, -70.14 88.75 11/05/2016 05:05:21 -75.28, -70.06 88.77 3.24 31
8 11/05/2016 05:55:19 75.22, 97.29 91.18 11/05/2016 05:56:27 75.23, 97.30 91.21 1.45 68
9 11/07/2016 10:39:35 75.28, 26.38 91.89 11/07/2016 10:39:25 75.28, 26.46 91.90 2.40 10
10 11/07/2016 11:29:04 -75.21,-166.17 88.18 11/07/2016 11:30:17 -75.15,-165.85 88.21 11.35 73
11 11/09/2016 15:23:41 75.83, -43.12 93.13 11/09/2016 15:22:35 75.88, -46.23 93.05 84.57 66
12 11/09/2016 16:13:19 -75.31, 123.04 87.44 11/09/2016 16:13:17 -75.30, 123.01 87.46 2.21 2
13 11/11/2016 20:57:32 -75.51, 52.52 86.61 11/11/2016 20:56:20 -75.58, 51.40 86.61 32.10 72
14 11/11/2016 21:47:02 75.28,-140.48 93.14 11/11/2016 21:47:21 75.31,-140.49 93.18 3.12 19




NCC Satellite Simultaneous Nadir Overpasses (SNOs) Prediction Service
